Location: Newark
(30.0333°N, 31.2167°E)
Time: 15:32:33
(UTC+00:00)

A-11 Canister half - Visible Passes

Search period start: 29 January 2020 00:00
Search period end: 08 February 2020 00:00
Orbit: 1517 x 1683 km, 47.2° (Epoch: 28 January)

Date Brightness Start Highest point End Pass type
(mag) Time Alt. Az. Time Alt. Az. Time Alt. Az.
29 Jan 9.7 01:38:28 40° NNE 01:38:53 41° NNE 01:47:31 10° E visible
29 Jan 9.0 03:36:41 17° NW 03:44:17 73° SW 03:53:41 10° SE visible
29 Jan 10.4 16:47:22 10° SSE 16:52:07 15° ESE 16:53:03 14° ESE visible
29 Jan 10.0 18:46:23 10° SW 18:51:18 34° SSW 18:51:18 34° SSW visible
30 Jan 9.9 01:17:04 38° NE 01:17:04 38° NE 01:24:25 10° E visible
30 Jan 8.9 03:15:17 25° NW 03:21:24 78° SW 03:30:48 10° SE visible
30 Jan 10.5 16:25:22 10° SSE 16:29:16 13° ESE 16:32:02 11° ESE visible
30 Jan 9.5 18:23:32 10° SSW 18:30:17 47° S 18:30:17 47° S visible
31 Jan 10.2 00:55:43 31° ENE 00:55:43 31° ENE 01:01:20 10° E visible
31 Jan 8.8 02:53:56 35° NW 02:58:31 83° SW 03:07:55 10° SE visible
31 Jan 10.6 16:03:41 10° SE 16:06:25 11° ESE 16:09:08 10° ESE visible
31 Jan 9.1 18:00:42 10° SSW 18:09:17 57° SSE 18:09:17 57° SSE visible
31 Jan 11.0 20:06:11 10° WSW 20:07:32 15° W 20:07:32 15° W visible
01 Feb 10.5 00:34:25 24° ENE 00:34:25 24° ENE 00:38:13 10° E visible
01 Feb 8.8 02:32:39 50° NW 02:35:37 88° SW 02:45:01 10° SE visible
01 Feb 9.0 17:37:52 10° SSW 17:47:20 56° SE 17:48:16 54° ESE visible
01 Feb 10.6 19:43:05 10° WSW 19:46:31 24° W 19:46:31 24° W visible
02 Feb 10.9 00:13:11 17° ENE 00:13:11 17° ENE 00:15:07 10° E visible
02 Feb 8.8 02:11:25 71° NW 02:12:44 87° NE 02:22:06 10° SE visible
02 Feb 10.0 04:09:55 10° WNW 04:16:48 24° SW 04:23:49 10° S visible
02 Feb 9.2 17:15:03 10° SSW 17:24:27 52° SE 17:27:15 41° E visible
02 Feb 10.1 19:20:01 10° WSW 19:25:29 35° W 19:25:29 35° W visible
03 Feb 8.8 01:50:15 80° E 01:50:15 80° E 01:59:10 10° SE visible
03 Feb 9.9 03:48:29 15° W 03:53:58 26° SW 04:01:17 10° S visible
03 Feb 9.3 16:52:16 10° SSW 17:01:34 48° SE 17:06:12 29° ENE visible
03 Feb 9.6 18:56:56 10° WSW 19:04:26 49° WNW 19:04:26 49° WNW visible
04 Feb 9.3 01:29:07 57° ESE 01:29:07 57° ESE 01:36:13 10° SE visible
04 Feb 9.8 03:27:22 22° W 03:31:08 28° SW 03:38:43 10° S visible
04 Feb 9.4 16:29:30 10° SSW 16:38:41 45° SE 16:45:07 20° ENE visible
04 Feb 9.3 18:33:53 10° WSW 18:43:22 59° NW 18:43:22 59° NW visible
05 Feb 9.9 01:08:03 39° ESE 01:08:03 39° ESE 01:13:17 10° ESE visible
05 Feb 9.6 03:06:18 28° WSW 03:08:18 31° SW 03:16:08 10° S visible
05 Feb 9.5 16:06:46 10° SSW 16:15:49 42° SE 16:23:59 12° ENE visible
05 Feb 9.2 18:10:51 10° WSW 18:20:31 62° NW 18:22:14 55° N visible
05 Feb 11.1 20:19:03 10° WNW 20:20:28 14° WNW 20:20:28 14° WNW visible
06 Feb 10.4 00:47:00 25° ESE 00:47:00 25° ESE 00:50:19 10° ESE visible
06 Feb 9.5 02:45:15 34° SW 02:45:27 34° SW 02:53:30 10° S visible
06 Feb 9.2 17:47:48 10° WSW 17:57:34 66° NW 18:01:03 43° NNE visible
06 Feb 10.8 19:55:54 10° WNW 19:59:17 20° NW 19:59:17 20° NW visible
07 Feb 10.9 00:25:59 15° ESE 00:25:59 15° ESE 00:27:21 10° ESE visible
07 Feb 9.6 02:24:14 34° SSW 02:24:14 34° SSW 02:30:51 10° SSE visible
07 Feb 9.2 17:24:47 10° WSW 17:34:36 70° NW 17:39:49 31° NE visible
07 Feb 10.4 19:32:44 10° WNW 19:38:03 26° NW 19:38:03 26° NW visible
